This demonstration page uses our WeatherBlox Daily Observations layout. Learn more.

Left ArrowRight Arrow

31.84235, -102.49876

Hourly Observations for March 24, 2022

Temp ( °F °C ) Dew Point ( °F °C ) Humidity (%) Winds ( mph kmh ) Pressure ( in mb ) Visibility ( mi km ) Precip ( " mm )
12:53 am 00:53 Clear 40 4.4 15 -9.4 36 36 NW 6 9 30.06 1018 10 16 0.00 0.00
1:53 am 01:53 Clear 38 3.3 15 -9.4 39 39 NW 7 11 30.07 1018 10 16 0.00 0.00
2:53 am 02:53 Clear 37 2.8 14 -10 39 39 W 3 6 30.04 1017 10 16 0.00 0.00
3:53 am 03:53 Clear 36 2.2 13 -10.6 39 39 W 3 6 30.04 1017 10 16 0.00 0.00
4:53 am 04:53 Clear 34 1.1 13 -10.6 42 42 NNE 9 15 30.04 1017 10 16 0.00 0.00
5:53 am 05:53 Clear 34 1.1 13 -10.6 42 42 N 5 7 30.04 1017 10 16 0.00 0.00
6:53 am 06:53 Clear 33 0.6 12 -11.1 42 42 NNW 5 7 30.06 1018 10 16 0.00 0.00
7:53 am 07:53 Sunny 35 1.7 12 -11.1 38 38 Calm 30.06 1018 10 16 0.00 0.00
8:53 am 08:53 Sunny 40 4.4 13 -10.6 33 33 WSW 5 7 30.06 1018 10 16 0.00 0.00
9:53 am 09:53 Sunny 54 12.2 16 -8.9 22 22 W 12 19 30.06 1018 10 16 0.00 0.00
10:53 am 10:53 Sunny 60 15.6 15 -9.4 17 17 W 12 19 30.05 1018 10 16 0.00 0.00
11:53 am 11:53 Sunny 64 17.8 16 -8.9 15 15 W 15 24 30.05 1018 10 16 0.00 0.00
12:53 pm 12:53 Sunny 68 20 16 -8.9 13 13 NW 16 26 30.03 1017 10 16 0.00 0.00
1:53 pm 13:53 Sunny 73 22.8 15 -9.4 11 11 NNW 15 24 30.00 1016 10 16 0.00 0.00
2:53 pm 14:53 Sunny 75 23.9 12 -11.1 9 9 NNW 16 26 29.97 1015 10 16 0.00 0.00
3:53 pm 15:53 Sunny 76 24.4 11 -11.7 8 8 NNW 14 22 29.95 1014 10 16 0.00 0.00
4:53 pm 16:53 Sunny 77 25 11 -11.7 8 8 WNW 15 24 29.93 1013 10 16 0.00 0.00
5:53 pm 17:53 Sunny 77 25 8 -13.3 7 7 WNW 9 15 29.91 1013 10 16 0.00 0.00
6:53 pm 18:53 Sunny 76 24.4 7 -13.9 7 7 WNW 10 17 29.92 1013 10 16 0.00 0.00
7:53 pm 19:53 Sunny 72 22.2 8 -13.3 8 8 WSW 12 19 29.93 1014 10 16 0.00 0.00
8:53 pm 20:53 Clear 65 18.3 7 -13.9 10 10 W 6 9 29.95 1014 10 16 0.00 0.00
9:53 pm 21:53 Clear 60 15.6 6 -14.4 11 11 W 5 7 29.96 1015 10 16 0.00 0.00
10:53 pm 22:53 Clear 61 16.1 6 -14.4 11 11 Calm 29.96 1015 10 16 0.00 0.00
11:53 pm 23:53 Clear 55 12.8 6 -14.4 14 14 W 3 6 29.97 1015 10 16 0.00 0.00

Powered by AerisWeather